Regional Weather Roundup
Issued by NWS

Home | Current Version | Previous Version | Graphics & Text | Print | Product List | Glossary On
Versions: 1 2 3 4 5 6 7 8 9 10 11 12 13 14 15 16 17 18 19 20 21 22 23 24 25 26 27 28 29 30 31 32 33 34 35 36 37 38 39 40 41 42 43 44 45 46 47 48 49 50
000
ASUS45 KTFX 232304
RWRMT
MONTANA HOURLY WEATHER ROUNDUP
NATIONAL WEATHER SERVICE GREAT FALLS MT
504 PM MDT WED APR 23 2014

NOTE: "FAIR" INDICATES FEW OR NO CLOUDS BELOW 12000 FEET WITH NO
SIGNIFICANT WEATHER AND/OR OBSTRUCTIONS TO VISIBILITY.

* THESE STATIONS ARE NOT UNDER NWS QUALITY CONTROL. THEY DO NOT
   REPORT WEATHER SUCH AS PRECIPITATION OR FOG.

MTZ001>007-043-240000-
WEST OF THE DIVIDE
CITY           SKY/WX    TMP DP  RH WIND       PRES   REMARKS
KALISPELL      MOCLDY    50  27  41 SW21G26   29.73S
MISSOULA       MOCLDY    52  27  38 W13G23    29.83R
BUTTE          MOCLDY    37  25  62 SW16G25   29.82R WCI  28
MULLAN PASS    LGT SNOW  28  27  96 W8        29.78R VSB 2    WCI  20
* ESSEX        N/A       39  28  65 S2         N/A
* LINCOLN      N/A       43  26  51 S10G20     N/A
* LOOKOUT PASS N/A       33  31  92 SE12G17    N/A   WCI  24
* POLSON       N/A       44  29  56 S4G11      N/A
* SEELEY LAKE  N/A       40  26  57 NW10G21    N/A   WCI  34
* THOMP F APT  MOCLDY    44  17  34 SW6G17     N/A
$$

MTZ008-052>055-240000-
SOUTHWEST MONTANA
CITY           SKY/WX    TMP DP  RH WIND       PRES   REMARKS
BOZEMAN        CLOUDY    46  27  48 SW28G39   29.81R
DILLON         MOCLDY    41  28  60 W21       29.85R
W YELLOWSTONE  N/A       40  24  53 SW6G15     N/A   WCI  36
* THREE FORKS  CLOUDY    48  21  34 SW22G29    N/A
* BOULDER HILL N/A       40  15  36 S14G19     N/A   WCI  32
* MONIDA PASS  N/A       36  12  37 W10G16     N/A   WCI  29
* RAYNOLDS PAS N/A       36  20  52 S11G17     N/A   WCI  28
* WHITEHALL    N/A       49  30  48 SW17G26    N/A
* WISE RIVER   N/A       30  24  78 NW11G36    N/A   WCI  21
$$

MTZ009>010-012-014-046-048-049-054-240000-
EAST SLOPES AND CENTRAL MONTANA
CITY           SKY/WX    TMP DP  RH WIND       PRES   REMARKS
CUT BANK       PTCLDY    46  27  48 W32G46    29.61R
GREAT FALLS    PTCLDY    52  23  32 SW33G43   29.67R
HELENA         MOCLDY    52  21  30 W18G26    29.75S
MALMSTROM AFB  PTCLDY    52  19  27 SW23G36   29.65R
* CONRAD       MOCLDY    50  19  29 SW16G37    N/A
* DEARBORN     N/A       47  24  40 S18G27     N/A
* EAST GLACIER N/A       35  29  79 W16G26     N/A   WCI  25
* MONARCH      N/A       40  11  30 SW18G30    N/A   WCI  31
* PENDROY      N/A       45  18  34 W23G29     N/A
* ROGERS PASS  N/A       37  20  50 SE8G21     N/A   WCI  31
* SAINT MARY   N/A       37  17  44 SW10G24    N/A   WCI  30
* SWEET GRASS  N/A       50  19  29 SW32G42    N/A
$$

MTZ011-013-016-021-035-040-045-047-050-051-240000-
NORTH CENTRAL MONTANA
CITY           SKY/WX    TMP DP  RH WIND       PRES   REMARKS
HAVRE          PTCLDY    57  19  23 W28G37    29.58R
LEWISTOWN      PTCLDY    48  16  28 W29G39    29.68S
* CHESTER      N/A       54  18  24 W24G39     N/A
* DENTON       N/A       51  14  23 SW23G30    N/A
* GEYSER       N/A       49  12  22 W32G37     N/A
* JUDITH GAP   N/A       43  16  34 SW26G39    N/A
* LOMA         N/A       57  19  23 SW27G40    N/A
$$

MTZ017>020-022>027-061-062-240000-
NORTHEAST MONTANA
CITY           SKY/WX    TMP DP  RH WIND       PRES   REMARKS
GLASGOW        CLOUDY    59  21  23 W28G33    29.55S
GLENDIVE       CLEAR     57  25  29 W18G28    29.63R
JORDAN         PTCLDY    57  19  23 W18G32    29.61S
SIDNEY         PTCLDY    61  28  29 W21G26    29.58S
WOLF POINT     MOCLDY    61  19  20 W24G38    29.55S
* BEAVER HILL  N/A       56  25  30 W25G33     N/A
* CIRCLE       N/A       56  27  33 SW9G18     N/A
* LINDSAY DVD  N/A       54  21  27 W24G35     N/A
* NAVAJO       N/A       49  43  80 NW9G14     N/A
* SACO         N/A       61  22  22 SW32G38    N/A
$$

MTZ028>042-056>058-240000-
SOUTHCENTRAL AND SOUTHEAST MONTANA
CITY           SKY/WX    TMP DP  RH WIND       PRES   REMARKS
BAKER          MOCLDY    55  28  35 W26G36    29.66R
BILLINGS       PTCLDY    55  16  21 W32G46    29.72S
LIVINGSTON     MOCLDY    52  18  26 W33G47    29.74F
MILES CITY     FAIR      57  25  29 W21G30    29.66R
* LAUREL APT   PTCLDY    54  16  22 W23G38     N/A
* ROUNDUP APT  PTCLDY    55  16  21 W26G40     N/A
* HYSHAM       N/A       55  16  21 W16G26     N/A
* LAME DEER    N/A       49  19  30 W20G32     N/A
* REED POINT   N/A       52  23  32 W21G34     N/A
* ROSCOE HILL  N/A       47   4  17 SW14G29    N/A
$$

REGIONAL REPORTS...DAKOTAS
CITY           SKY/WX    TMP DP  RH WIND       PRES   REMARKS
WILLISTON      CLOUDY    52  45  77 NW15G22   29.57R
DICKINSON      PTCLDY    55  32  42 NW24G29   29.59R
CROSBY         MOCLDY    46  46 100 W24G32    29.52R
TIOGA          LGT RAIN  43  43 100 W22       29.58R
WATFORD CITY   FAIR      50  41  71 W17G24    29.56S
BISMARCK       CLOUDY    55  46  72 SE8       29.58S
GRAND FORKS    LGT RAIN  43  39  86 SE22G36   29.85S
FARGO          LGT RAIN  45  39  80 SE21G32   29.82S
BUFFALO SD     PTCLDY    54  32  43 W28G36    29.62R
RAPID CITY     MOCLDY    57  37  47 N29G37    29.64R
$$

REGIONAL REPORTS...WYOMING/IDAHO/WASHINGTON
CITY           SKY/WX    TMP DP  RH WIND       PRES   REMARKS
GILLETTE       CLOUDY    48  30  50 N13       29.74R
SHERIDAN       MOCLDY    54  27  35 NW7       29.75R
CODY           PTCLDY    46  16  30 W23G35    29.78S
YELLOWSTONE LA PTCLDY    30  21  69 VRB5      29.90R WCI  25
SALMON         PTCLDY    52  21  30 SW15G23   29.84S
MULLAN PASS    LGT SNOW  28  27  96 W8        29.78S VSB 2    WCI  20
SPOKANE        MOCLDY    54  27  35 SW26G33   29.80S
$$

REGIONAL REPORTS...SASKATCHEWAN
CITY           SKY/WX    TMP DP  RH WIND       PRES   REMARKS
SWIFT CURRENT  CLOUDY    48  41  77 SW16G23   29.47R

$$




USA.gov is the U.S. government's official web portal to all federal, state and local government web resources and services.